Date String (YYYY-MM-DD hh:mm:ss) UTC,Instrument flags,Ambient pressure (hPa),Sample flow (lpm),Bypass flow (lpm),Sample temperature (°C),Ambient temperature (°C),ASC tube jacket temperature (°C),LED temperature (°C),Box temperature (°C),Sample RH (%),Span deviation,Mass concentration (μg/m³),Mass concentration (μg/m³),Mass concentration (μg/m³)
DateTimeUTC,F1_M11,P_M11,Q1_M11,Q2_M11,T1_M11,T2_M11,T3_M11,T4_M11,T5_M11,U1_M11,ZSPAN_M11,X0_M11,X2_M11,X1_M11
2022-01-04 03:00:00,,0820.6,4.99,0.00,23.9,23.2,00.0,33.0,25.6,08.5,0000.0,0007.06,0003.81,0003.55
2022-01-04 03:01:00,,0820.6,5.00,0.00,23.9,23.2,00.0,33.0,25.5,08.4,0000.0,0007.02,0003.84,0003.61
2022-01-04 03:02:00,,0820.6,5.01,0.00,23.9,23.2,00.0,33.0,25.5,08.4,0000.0,0007.06,0003.89,0003.68
2022-01-04 03:03:00,,0820.6,4.99,0.00,23.9,23.2,00.0,33.0,25.5,08.4,0000.0,0007.34,0004.04,0003.82
2022-01-04 03:04:00,,0820.6,5.01,0.00,23.9,23.1,00.0,33.0,25.5,08.1,0000.0,0007.73,0004.15,0003.93
2022-01-04 03:05:00,,0820.7,4.99,0.00,23.9,23.2,00.0,33.0,25.6,08.0,0000.0,0008.19,0004.27,0004.05
2022-01-04 03:06:00,,0820.6,5.01,0.00,23.9,23.2,00.0,33.0,25.5,07.9,0000.0,0008.50,0004.48,0004.24
2022-01-04 03:07:00,,0820.6,4.99,0.00,23.9,23.1,00.0,33.0,25.5,08.0,0000.0,0008.81,0004.75,0004.47
2022-01-04 03:08:00,,0820.6,5.00,0.00,23.9,23.1,00.0,33.0,25.5,08.1,0000.0,0009.09,0004.99,0004.69
2022-01-04 03:09:00,,0820.6,5.00,0.00,23.9,23.1,00.0,32.9,25.5,08.3,0000.0,0009.09,0005.10,0004.81
2022-01-04 03:10:00,,0820.6,5.01,0.00,23.9,23.1,00.0,32.9,25.5,08.0,0000.0,0008.38,0004.95,0004.68
2022-01-04 03:11:00,,0820.6,5.00,0.00,23.9,23.1,00.0,32.9,25.5,07.7,0000.0,0008.13,0004.70,0004.43
2022-01-04 03:12:00,,0820.6,5.00,0.00,23.9,23.1,00.0,32.9,25.5,07.6,0000.0,0007.92,0004.52,0004.25
2022-01-04 03:13:00,,0820.6,4.99,0.00,23.9,23.1,00.0,32.9,25.5,07.6,0000.0,0007.82,0004.38,0004.10
2022-01-04 03:14:00,,0820.6,4.99,0.00,23.9,23.1,00.0,32.9,25.5,07.6,0000.0,0007.57,0004.17,0003.92
2022-01-04 03:15:00,,0820.7,5.01,0.00,23.9,23.1,00.0,32.9,25.5,07.6,0000.0,0007.13,0003.97,0003.74
2022-01-04 03:16:00,,0820.6,4.99,0.00,23.9,23.1,00.0,32.9,25.6,07.7,0000.0,0005.80,0003.82,0003.60
2022-01-04 03:17:00,,0820.6,5.01,0.00,23.9,23.1,00.0,32.9,25.6,07.9,0000.0,0005.74,0003.80,0003.55
2022-01-04 03:18:00,,0820.6,4.99,0.00,23.9,23.1,00.0,32.9,25.6,08.0,0000.0,0005.82,0003.84,0003.58
2022-01-04 03:19:00,,0820.6,5.01,0.00,23.9,23.1,00.0,32.9,25.6,08.0,0000.0,0005.95,0003.87,0003.63
2022-01-04 03:20:00,,0820.6,4.99,0.00,23.9,23.1,00.0,32.9,25.6,08.1,0000.0,0006.23,0003.95,0003.68
2022-01-04 03:21:00,,0820.6,5.00,0.00,23.9,23.1,00.0,32.9,25.5,08.1,0000.0,0006.23,0003.95,0003.64
2022-01-04 03:22:00,,0820.5,5.00,0.00,23.9,23.1,00.0,32.9,25.5,08.1,0000.0,0006.14,0003.95,0003.65
2022-01-04 03:23:00,,0820.4,4.99,0.00,23.9,23.1,00.0,32.9,25.5,08.1,0000.0,0006.27,0004.03,0003.74
2022-01-04 03:24:00,,0820.4,5.00,0.00,23.8,23.1,00.0,32.9,25.5,08.0,0000.0,0006.53,0004.16,0003.88
2022-01-04 03:25:00,,0820.4,4.99,0.00,23.8,23.1,00.0,32.9,25.5,08.0,0000.0,0006.84,0004.32,0004.02
2022-01-04 03:26:00,,0820.4,5.00,0.00,23.8,23.1,00.0,32.9,25.5,08.0,0000.0,0007.13,0004.46,0004.16
2022-01-04 03:27:00,,0820.3,5.00,0.00,23.8,23.1,00.0,32.8,25.5,08.0,0000.0,0007.42,0004.62,0004.30
2022-01-04 03:28:00,,0820.3,5.00,0.00,23.8,23.0,00.0,32.8,25.5,08.0,0000.0,0007.78,0004.67,0004.37
2022-01-04 03:29:00,,0820.2,5.00,0.00,23.8,23.0,00.0,32.8,25.5,08.1,0000.0,0007.71,0004.60,0004.33
2022-01-04 03:30:00,,0820.2,5.01,0.00,23.8,23.0,00.0,32.8,25.5,08.2,0000.0,0007.55,0004.46,0004.20
2022-01-04 03:31:00,,0820.3,4.98,0.00,23.8,23.0,00.0,32.8,25.4,08.0,0000.0,0007.23,0004.26,0004.04
2022-01-04 03:32:00,,0820.4,5.01,0.00,23.7,23.0,00.0,32.8,25.4,07.9,0000.0,0006.83,0004.14,0003.95
2022-01-04 03:33:00,,0820.4,5.00,0.00,23.7,23.0,00.0,32.8,25.4,07.8,0000.0,0007.00,0004.12,0003.94
2022-01-04 03:34:00,,0820.3,5.00,0.00,23.7,23.0,00.0,32.8,25.4,07.6,0000.0,0007.02,0004.07,0003.88
2022-01-04 03:35:00,,0820.3,5.00,0.00,23.7,23.0,00.0,32.8,25.4,07.6,0000.0,0006.86,0003.96,0003.77
2022-01-04 03:36:00,,0820.3,4.99,0.00,23.7,23.0,00.0,32.8,25.4,07.4,0000.0,0006.41,0003.75,0003.58
2022-01-04 03:37:00,,0820.3,5.01,0.00,23.7,23.0,00.0,32.8,25.4,07.4,0000.0,0006.02,0003.56,0003.40
2022-01-04 03:38:00,,0820.3,5.00,0.00,23.7,22.9,00.0,32.8,25.5,07.4,0000.0,0006.11,0003.37,0003.22
2022-01-04 03:39:00,,0820.2,4.99,0.00,23.7,23.0,00.0,32.8,25.5,07.4,0000.0,0005.18,0003.17,0002.96
2022-01-04 03:40:00,,0820.2,5.00,0.00,23.7,23.0,00.0,32.8,25.5,07.4,0000.0,0004.87,0003.02,0002.73
2022-01-04 03:41:00,,0820.1,5.00,0.00,23.7,23.0,00.0,32.8,25.5,07.3,0000.0,0004.63,0002.83,0002.57
2022-01-04 03:42:00,,0820.1,5.00,0.00,23.7,23.0,00.0,32.8,25.5,07.2,0000.0,0004.57,0002.80,0002.52
2022-01-04 03:43:00,,0820.1,5.01,0.00,23.7,23.0,00.0,32.7,25.5,07.2,0000.0,0004.69,0002.84,0002.53
2022-01-04 03:44:00,,0820.2,4.99,0.00,23.7,23.0,00.0,32.7,25.5,07.1,0000.0,0004.43,0002.85,0002.49
2022-01-04 03:45:00,,0820.2,5.00,0.00,23.7,23.0,00.0,32.7,25.5,07.3,0000.0,0004.37,0002.83,0002.46
2022-01-04 03:46:00,,0820.2,5.00,0.00,23.7,23.0,00.0,32.7,25.5,07.9,0000.0,0004.26,0002.82,0002.47
2022-01-04 03:47:00,,0820.3,4.99,0.00,23.7,23.0,00.0,32.7,25.4,08.1,0000.0,0004.32,0002.83,0002.49
2022-01-04 03:48:00,,0820.2,5.01,0.00,23.7,23.0,00.0,32.7,25.4,07.7,0000.0,0004.34,0002.82,0002.51
2022-01-04 03:49:00,,0820.2,4.99,0.00,23.7,22.9,00.0,32.7,25.4,07.5,0000.0,0004.06,0002.84,0002.50
2022-01-04 03:50:00,,0820.2,5.00,0.00,23.7,22.9,00.0,32.7,25.3,07.4,0000.0,0004.09,0002.86,0002.49
2022-01-04 03:51:00,,0820.1,5.01,0.00,23.6,22.8,00.0,32.7,25.2,07.0,0000.0,0003.99,0002.75,0002.39
2022-01-04 03:52:00,,0820.1,4.99,0.00,23.6,22.8,00.0,32.7,25.2,06.6,0000.0,0003.98,0002.72,0002.34
2022-01-04 03:53:00,,0820.1,5.01,0.00,23.6,22.7,00.0,32.7,25.1,06.3,0000.0,0003.99,0002.69,0002.30
2022-01-04 03:54:00,,0820.0,5.00,0.00,23.5,22.7,00.0,32.7,25.1,06.7,0000.0,0003.91,0002.64,0002.27
2022-01-04 03:55:00,,0820.0,5.00,0.00,23.5,22.7,00.0,32.6,25.2,06.8,0000.0,0003.78,0002.60,0002.22
2022-01-04 03:56:00,,0820.0,5.01,0.00,23.5,22.7,00.0,32.6,25.2,06.8,0000.0,0003.75,0002.56,0002.18
2022-01-04 03:57:00,,0820.0,4.99,0.00,23.6,22.8,00.0,32.6,25.2,06.7,0000.0,0003.73,0002.46,0002.10
2022-01-04 03:58:00,,0820.0,5.00,0.00,23.6,22.8,00.0,32.6,25.3,07.3,0000.0,0003.61,0002.45,0002.10
2022-01-04 03:59:00,,0820.0,4.99,0.00,23.6,22.8,00.0,32.6,25.3,07.3,0000.0,0003.63,0002.48,0002.13
